Regional Weather Roundup
Issued by NWS Boston, MA

Home | Current Version | Previous Version | Text Only | Print | Product List | Glossary On
Versions: 1 2 3 4 5 6 7 8 9 10 11 12 13 14 15 16 17 18 19 20 21 22 23 24 25 26 27 28 29 30 31 32 33 34 35 36 37 38 39 40 41 42 43 44 45 46 47 48 49 50
000
ASUS41 KBOX 060810
RWRBOX

REGIONAL WEATHER ROUNDUP
NATIONAL WEATHER SERVICE TAUNTON MA
400 AM EDT WED MAY 06 2015

NOTE:  "FAIR" INDICATES FEW OR NO CLOUDS BELOW 12,000 FEET WITH NO
SIGNIFICANT WEATHER AND/OR OBSTRUCTIONS TO VISIBILITY.  THE FOLLOWING
OBSERVATION LOCATIONS DO NOT REPORT PRESENT WEATHER...PROVINCETOWN...
SMITHFIELD...BLOCK ISLAND...KEENE...AND OXFORD.

MAZALL-060900-
EASTERN MASSACHUSETTS

CITY           SKY/WX    TMP DP  RH WIND       PRES   REMARKS
BOSTON         MOCLDY    56  48  74 N6        30.23S
BEVERLY        MOCLDY    52  47  83 N7        30.23S
LAWRENCE       PTCLDY    50  48  93 CALM      30.26S
BEDFORD        MOCLDY    48  47  96 CALM      30.23S
BLUE HILL        N/A     56  48  74 N13       30.21F
NORWOOD        CLOUDY    55  51  86 CALM      30.23S
MARSHFIELD     MOCLDY    55  52  88 N8        30.23S
PLYMOUTH       CLOUDY    53  50  89 NE3       30.22S
TAUNTON        CLOUDY    50  48  93 CALM      30.21S
NEW BEDFORD    CLOUDY    52  50  93 CALM      30.20S
$$

MAZALL-060900-
CAPE COD AND THE ISLANDS

CITY           SKY/WX    TMP DP  RH WIND       PRES   REMARKS
FALMOUTH       CLOUDY    52  48  87 N5        30.21R
HYANNIS        MOCLDY    51  48  89 N3        30.19S
CHATHAM        PTCLDY    51  48  89 N3        30.22R
PROVINCETOWN   MOCLDY    48  46  93 NE6       30.23S
NANTUCKET      MOCLDY    49  46  90 CALM      30.20R
MARTHAS VNYRD  MOCLDY   N/A N/A N/A N6        30.20R
$$

MAZALL-060900-
CENTRAL AND WESTERN MASSACHUSETTS

CITY           SKY/WX    TMP DP  RH WIND       PRES   REMARKS
WORCESTER      CLOUDY    60  29  30 N13       30.25S
FITCHBURG      MOCLDY    48  40  73 NW3       30.27R
ORANGE         MOCLDY    43  40  89 CALM      30.26F
SPRINGFIELD    CLOUDY    53  40  59 N7        30.23R
WESTFIELD      CLOUDY    55  40  56 N7        30.24R
NORTH ADAMS    CLOUDY    47  43  86 CALM      30.28R
PITTSFIELD     MOCLDY    51  43  74 CALM      30.25S
$$

RIZALL-060900-
RHODE ISLAND

CITY           SKY/WX    TMP DP  RH WIND       PRES   REMARKS
PROVIDENCE     CLOUDY    56  50  80 N5        30.22R
NEWPORT        CLOUDY    57  50  77 N7        30.21R
BLOCK ISLAND   CLOUDY    50  46  87 NE7       30.20R
SMITHFIELD     CLOUDY    57  45  62 N10       30.22S
WESTERLY       CLOUDY    57  51  80 NE5       30.20R
$$

CTZALL-060900-
CONNECTICUT

CITY           SKY/WX    TMP DP  RH WIND       PRES   REMARKS
BRADLEY INTL   CLOUDY    58  39  49 N8        30.22R
HARTFORD       CLOUDY    61  38  42 N10       30.21R
BRIDGEPORT     CLOUDY    56  51  84 NE3       30.20R
DANBURY        CLOUDY    64  35  34 N5        30.22S
GROTON         CLOUDY    55  50  83 CALM      30.19R
NEW HAVEN      CLOUDY    53  49  86 S6        30.20R
CHESTER        NOT AVBL
MERIDEN        CLOUDY    65  40  39 N7        30.21R
WILLIMANTIC    CLOUDY    58  51  78 N5        30.22R
OXFORD           N/A     63  37  39 N10       30.24R
$$

MEZ002-015-021-024-NHZ003-005-008-011-012-014-VTZ005-008-060900-
NORTHERN NEW ENGLAND

CITY           SKY/WX    TMP DP  RH WIND       PRES   REMARKS
PORTLAND ME    CLEAR     45  39  79 W3        30.25S
BANGOR ME      PTCLDY    45  32  60 W6        30.24R
CONCORD NH     CLEAR     44  35  70 CALM      30.27R
MANCHESTER NH  MOCLDY    52  39  61 CALM      30.25R
NASHUA NH      PTCLDY    49  43  80 NW6       30.26S
PORTSMOUTH NH  MOCLDY    48  46  90 W3        30.23S
JAFFREY NH     PTCLDY    42  38  85 CALM      30.27F
KEENE NH       PTCLDY    45  39  81 CALM      30.28S
BURLINGTON VT  CLEAR     46  35  65 SE3       30.28R
MT. WASHINGTON PTCLDY    30  16  55 NW46        N/A  WCI  12
$$

NYZ052-076-060900-
EASTERN NEW YORK

CITY           SKY/WX    TMP DP  RH WIND       PRES   REMARKS
ALBANY         CLOUDY    57  38  48 N7        30.27R
NEW YORK CITY  CLOUDY    68  39  34 N6        30.19S
$$

ANZALL-060900-
MARINE OBSERVATIONS

STATION/POSITION TIME  TEMP    WIND        PRES    VSBY  WAVE
                       AIR SEA DIR/SP/G                  HT/PER
                 (UTC) (F)     (DEG/KT/KT) (MB)    (MI)  (FT/S)
BOSTON BUOY      0750   50 47   10/  6/  8   N/A           1/10
BUZZARDS BAY     0700           50/  9/  9   N/A
NANTUCKET SOUND  0750   50 49   50/  6/  6   N/A           1
MASS BAY-STELLWA 0704   48 47  360/  4/  4   N/A    1 7/8  2/11
ISLE OF SHOALS   0700   58     340/  7/  8   N/A
S OF BLOCK IS    0708      47                N/A           3/ 7
$$

......................KEY.........................
  SKY/WX - SKY CONDITION/PRESENT WEATHER
  TMP    - TEMPERATURE IN FAHRENHEIT
  DWPT   - DEWPOINT IN FAHRENHEIT
  RH     - RELATIVE HUMIDITY IN PERCENT
  WIND   - DIRECTION AND SPEED IN MPH
  PRES   - MEAN SEA LEVEL PRESSURE IN INCHES OF HG
  WCI    - WIND CHILL INDEX
  VSB    - VISIBILITY IN MILES
  HX     - HEAT INDEX
  TC     - TEMPERATURE IN CELSIUS
  VRB    - VARIABLE WIND DIRECTION
  N/A    - NOT AVAILABLE


USA.gov is the U.S. government's official web portal to all federal, state and local government web resources and services.